Location: Dehesa de la Cepeda
(40.6574°N, 4.3013°W)
Time: 19:50:42
(UTC+00:00)

Cosmos 2112 Rocket - Pass Details

Date: 05 July 2020
Orbit: 756 x 787 km, 74.0° (Epoch: 06 August)

Event Time Altitude Azimuth Distance (km) Brightness Sun altitude
Exits shadow 22:48:24 58° 147° (SSE) 914 4.0 -23.0°
Maximum altitude 22:49:08 65° 105° (ESE) 863 4.0 -23.1°
Drops below altitude 10° 22:54:26 10° 25° (NNE) 2,355 7.1 -23.5°
Sets 22:56:51 0° 23° (NNE) 3,288 7.9 -23.7°
